Simultaneous Nadir Overpasses (SNOs) Predictions

Prediction of SNOs between AURA and NPP Satellite Orbit:

Table of predicted SNOs for the next 14.0 days since TLE Epoch: 7/27/2015
Index Date (AURA) Time (AURA) Lat,Lon (AURA) SZA (AURA ) Date (NPP) Time (NPP) Lat,Lon (NPP) SZA (NPP ) Distance(km) Time Diff (sec)
1 07/28/2015 00:24:31 -78.21,-116.69 104.29 07/28/2015 00:23:18 -78.20,-116.81 104.21 2.98 73
2 07/28/2015 01:13:45 78.71, 53.53 75.05 07/28/2015 01:13:49 78.70, 53.44 75.07 2.10 4
3 07/30/2015 16:40:55 -78.43, 0.30 103.97 07/30/2015 16:40:04 -78.43, 0.26 103.93 0.87 51
4 07/30/2015 17:30:10 78.88, 170.36 75.43 07/30/2015 17:30:36 78.89, 170.38 75.41 0.52 26
5 08/02/2015 08:57:19 -78.69, 117.51 103.67 08/02/2015 08:56:50 -78.70, 117.61 103.67 2.46 29
6 08/02/2015 09:46:38 78.96, -73.30 75.97 08/02/2015 09:47:27 78.96, -73.39 75.95 2.00 49
7 08/05/2015 01:13:47 -78.76,-126.21 103.09 08/05/2015 01:13:41 -78.77,-126.17 103.09 0.78 6
8 08/05/2015 02:03:02 79.19, 43.96 76.33 08/05/2015 02:04:13 79.20, 44.10 76.24 3.06 71
9 08/07/2015 16:40:58 78.39,-179.97 78.12 08/07/2015 16:39:58 78.38, 179.98 78.18 1.05 60
10 08/07/2015 17:30:14 -78.87, -9.74 102.53 08/07/2015 17:30:31 -78.87, -9.72 102.54 0.30 17
11 08/10/2015 08:57:22 78.57, -63.15 78.62 08/10/2015 08:56:45 78.57, -63.16 78.65 0.11 37




NCC Satellite Simultaneous Nadir Overpasses (SNOs) Prediction Service
